User: anonymous   Login
Location: Charlottesville
(38.0290°N, 78.4770°W)
Time: 08:38:55
(UTC-05:00)
Language:

Hubble Space Telescope - Orbit

View from above orbital plane
View from above orbital plane
View from above satellite
View from above satellite

Ground track
Ground track

The orbit data is extracted from the following two-line orbital elements,

1 20580U 90037B   18054.63573437 +.00000476 +00000-0 +18245-4 0  9991
2 20580 028.4692 145.7158 0002750 003.9459 139.7490 15.08984183328219
Epoch (UTC): 23 February 2018 15:15:27
Eccentricity: 0.0002750
inclination: 28.4692°
perigee height: 537 km
apogee height: 541 km
right ascension of ascending node: 145.7158°
argument of perigee: 3.9459°
revolutions per day: 15.08984183
mean anomaly at epoch: 139.7490°
orbit number at epoch: 32821

The dashed part of the orbit path shows where the satellite is in the earth's shadow,  

DLR